| time (UTC) | temp F | wind direction | speed MPH | gust MPH | rain 1hr in | rain 24hr in | rain mn in | humidity % | barometer mb |
| 20260901133101 | 0 | 0.0 | 0.0 | 0.00 | 0.00 | 0.00 | 1018.7 | ||
| 20260901131558 | 0 | 0.0 | 0.0 | 0.00 | 0.00 | 0.00 | 1018.5 | ||
| 20260901130049 | 0 | 0.0 | 0.0 | 0.00 | 0.00 | 0.00 | 1018.3 | ||
| 20260901124559 | 0 | 0.0 | 0.0 | 0.00 | 0.00 | 0.00 | 1018.3 | ||
| 20260901123051 | 0 | 0.0 | 0.0 | 0.00 | 0.00 | 0.00 | 1018.2 | ||
| 20260901121549 | 0 | 0.0 | 0.0 | 0.00 | 0.00 | 0.00 | 1018.0 | ||
| 20260901120055 | 0 | 0.0 | 0.0 | 0.00 | 0.00 | 0.00 | 1018.2 | ||
| 20260901114559 | 0 | 0.0 | 0.0 | 0.00 | 0.00 | 0.00 | 1018.1 | ||
| 20260901113103 | 0 | 0.0 | 0.0 | 0.00 | 0.00 | 0.00 | 1018.2 | ||
| 20260901111600 | 0 | 0.0 | 0.0 | 0.00 | 0.00 | 0.00 | 1018.1 | ||
| 20260901110056 | 0 | 0.0 | 0.0 | 0.00 | 0.00 | 0.00 | 1018.0 | ||
| 20260901104554 | 0 | 0.0 | 0.0 | 0.00 | 0.00 | 0.00 | 1018.0 | ||
| 20260901103107 | 0 | 0.0 | 0.0 | 0.00 | 0.00 | 0.00 | 1017.9 | ||
| 20260901101549 | 0 | 0.0 | 0.0 | 0.00 | 0.00 | 0.00 | 1018.0 | ||
| 20260901100055 | 0 | 0.0 | 0.0 | 0.00 | 0.00 | 0.00 | 1018.0 | ||
| 20260901094553 | 0 | 0.0 | 0.0 | 0.00 | 0.00 | 0.00 | 1018.1 | ||
| 20260901093051 | 0 | 0.0 | 0.0 | 0.00 | 0.00 | 0.00 | 1018.1 | ||
| 20260901091557 | 0 | 0.0 | 1.0 | 0.00 | 0.00 | 0.00 | 88 | 1018.2 | |
| 20260901090052 | 80 | 0 | 0.0 | 3.0 | 0.00 | 0.00 | 0.00 | 88 | 1018.2 |
| 20260901084549 | 80 | 0 | 0.0 | 3.0 | 0.00 | 0.00 | 0.00 | 87 | 1018.1 |
| 20260901083048 | 80 | 0 | 0.0 | 3.0 | 0.00 | 0.00 | 0.00 | 87 | 1018.2 |
| 20260901081556 | 80 | 144 | 0.0 | 1.0 | 0.00 | 0.00 | 0.00 | 87 | 1018.1 |
| 20260901080054 | 80 | 0 | 0.0 | 1.0 | 0.00 | 0.00 | 0.00 | 86 | 1018.0 |
| 20260901074601 | 80 | 53 | 0.0 | 3.0 | 0.00 | 0.00 | 0.00 | 85 | 1018.1 |
| 20260901073049 | 80 | 0 | 0.0 | 3.0 | 0.00 | 0.00 | 0.00 | 85 | 1018.0 |
| 20260901071554 | 80 | 0 | 0.0 | 4.0 | 0.00 | 0.00 | 0.00 | 83 | 1018.2 |
| 20260901070053 | 81 | 0 | 0.0 | 4.0 | 0.00 | 0.00 | 0.00 | 82 | 1018.2 |
| 20260901064549 | 81 | 0 | 0.0 | 7.0 | 0.00 | 0.00 | 0.00 | 80 | 1018.0 |
| 20260901063048 | 82 | 0 | 0.0 | 6.0 | 0.00 | 0.00 | 0.00 | 79 | 1018.0 |
| 20260901061553 | 82 | 0 | 0.0 | 2.0 | 0.00 | 0.00 | 0.00 | 78 | 1017.8 |
| 20260901060058 | 82 | 98 | 0.0 | 6.0 | 0.00 | 0.00 | 0.00 | 77 | 1017.7 |
| 20260901054553 | 82 | 134 | 0.0 | 3.0 | 0.00 | 0.00 | 0.00 | 76 | 1017.6 |
| 20260901053058 | 83 | 94 | 0.0 | 4.0 | 0.00 | 0.00 | 0.00 | 75 | 1017.5 |
| 20260901051553 | 83 | 136 | 1.0 | 7.0 | 0.00 | 0.00 | 0.00 | 73 | 1017.5 |
| 20260901050048 | 84 | 0 | 2.0 | 6.0 | 0.00 | 0.00 | 0.00 | 71 | 1017.5 |
| 20260901044556 | 84 | 124 | 2.0 | 8.0 | 0.00 | 0.00 | 0.00 | 69 | 1017.4 |
| 20260901043052 | 85 | 108 | 2.0 | 7.0 | 0.00 | 0.00 | 0.00 | 68 | 1017.3 |
| 20260901041549 | 85 | 34 | 3.0 | 10.0 | 0.00 | 0.00 | 0.00 | 67 | 1017.1 |
| 20260901040108 | 86 | 113 | 3.0 | 8.0 | 0.00 | 0.00 | 0.00 | 64 | 1017.0 |
| 20260901034553 | 87 | 148 | 1.0 | 10.0 | 0.00 | 0.00 | 0.00 | 63 | 1017.1 |
| 20260901033053 | 87 | 136 | 2.0 | 7.0 | 0.00 | 0.00 | 0.00 | 63 | 1016.8 |
| 20260901031549 | 87 | 82 | 3.0 | 10.0 | 0.00 | 0.00 | 0.00 | 62 | 1016.8 |
| 20260901030046 | 88 | 108 | 4.0 | 13.0 | 0.00 | 0.00 | 0.00 | 61 | 1016.7 |
| 20260901024553 | 89 | 97 | 4.0 | 11.0 | 0.00 | 0.00 | 0.00 | 60 | 1016.3 |
| 20260901023053 | 90 | 84 | 3.0 | 13.0 | 0.00 | 0.00 | 0.00 | 58 | 1016.1 |
| 20260901021549 | 91 | 51 | 4.0 | 12.0 | 0.00 | 0.00 | 0.00 | 56 | 1015.7 |
| 20260901020050 | 92 | 178 | 4.0 | 12.0 | 0.00 | 0.00 | 0.00 | 53 | 1015.4 |
| 20260901014547 | 92 | 103 | 3.0 | 9.0 | 0.00 | 0.00 | 0.00 | 51 | 1015.1 |
| 20260901013107 | 93 | 111 | 1.0 | 3.0 | 0.00 | 0.00 | 0.00 | 50 | 1014.8 |
| 20260901011548 | 93 | 0 | 0.0 | 4.0 | 0.00 | 0.00 | 0.00 | 48 | 1014.8 |
| 20260901010100 | 94 | 0 | 1.0 | 5.0 | 0.00 | 0.00 | 0.00 | 47 | 1014.7 |
| 20260901004555 | 94 | 37 | 1.0 | 4.0 | 0.00 | 0.00 | 0.00 | 46 | 1014.5 |
| 20260901003051 | 95 | 0 | 0.0 | 2.0 | 0.00 | 0.00 | 0.00 | 46 | 1014.5 |
| 20260901001547 | 95 | 132 | 2.0 | 5.0 | 0.00 | 0.00 | 0.00 | 44 | 1014.5 |
| 20260901000056 | 96 | 89 | 2.0 | 4.0 | 0.00 | 0.00 | 0.00 | 44 | 1014.5 |
| 20260831234601 | 96 | 65 | 1.0 | 8.0 | 0.00 | 0.00 | 0.00 | 46 | 1014.3 |
| 20260831233058 | 96 | 0 | 2.0 | 6.0 | 0.00 | 0.00 | 0.00 | 45 | 1014.3 |
| 20260831231553 | 96 | 114 | 3.0 | 10.0 | 0.00 | 0.00 | 0.00 | 45 | 1014.3 |
| 20260831230050 | 97 | 0 | 1.0 | 7.0 | 0.00 | 0.00 | 0.00 | 46 | 1014.5 |
| 20260831224550 | 97 | 107 | 3.0 | 7.0 | 0.00 | 0.00 | 0.00 | 42 | 1014.5 |
| 20260831223100 | 98 | 74 | 2.0 | 6.0 | 0.00 | 0.00 | 0.00 | 42 | 1014.6 |
| 20260831221619 | 99 | 136 | 1.0 | 7.0 | 0.00 | 0.00 | 0.00 | 41 | 1014.6 |
| 20260831220053 | 97 | 122 | 1.0 | 6.0 | 0.00 | 0.00 | 0.00 | 41 | 1014.9 |
| 20260831214550 | 97 | 108 | 2.0 | 8.0 | 0.00 | 0.00 | 0.00 | 41 | 1015.2 |
| 20260831213048 | 97 | 0 | 0.0 | 9.0 | 0.00 | 0.00 | 0.00 | 42 | 1015.4 |
| 20260831211552 | 96 | 95 | 4.0 | 8.0 | 0.00 | 0.00 | 0.00 | 42 | 1015.5 |
| 20260831210052 | 97 | 71 | 4.0 | 7.0 | 0.00 | 0.00 | 0.00 | 44 | 1015.7 |
| 20260831204550 | 96 | 28 | 3.0 | 11.0 | 0.00 | 0.00 | 0.00 | 46 | 1016.0 |
| 20260831203105 | 96 | 0 | 0.0 | 6.0 | 0.00 | 0.00 | 0.00 | 49 | 1016.3 |
| 20260831201550 | 95 | 86 | 4.0 | 9.0 | 0.00 | 0.00 | 0.00 | 50 | 1016.5 |
| 20260831200136 | 96 | 0 | 3.0 | 6.0 | 0.00 | 0.00 | 0.00 | 47 | 1017.0 |
| 20260831194556 | 96 | 0 | 2.0 | 7.0 | 0.00 | 0.00 | 0.00 | 49 | 1017.1 |
| 20260831193048 | 95 | 353 | 0.0 | 7.0 | 0.00 | 0.00 | 0.00 | 51 | 1017.3 |
| 20260831191556 | 95 | 143 | 1.0 | 8.0 | 0.00 | 0.00 | 0.00 | 52 | 1017.6 |
| 20260831190053 | 94 | 27 | 1.0 | 9.0 | 0.00 | 0.00 | 0.00 | 53 | 1017.8 |
| 20260831184552 | 93 | 103 | 1.0 | 8.0 | 0.00 | 0.00 | 0.00 | 56 | 1018.0 |
| 20260831183059 | 93 | 38 | 1.0 | 4.0 | 0.00 | 0.00 | 0.00 | 55 | 1018.2 |
| 20260831181559 | 93 | 97 | 2.0 | 6.0 | 0.00 | 0.00 | 0.00 | 55 | 1018.4 |
| 20260831180055 | 93 | 0 | 0.0 | 9.0 | 0.00 | 0.00 | 0.00 | 58 | 1018.3 |
| 20260831174600 | 91 | 261 | 2.0 | 7.0 | 0.00 | 0.00 | 0.00 | 57 | 1018.6 |
| 20260831173055 | 90 | 68 | 2.0 | 7.0 | 0.00 | 0.00 | 0.00 | 60 | 1018.7 |
| 20260831171605 | 90 | 0 | 1.0 | 8.0 | 0.00 | 0.00 | 0.00 | 66 | 1018.8 |
| 20260831170111 | 90 | 0 | 0.0 | 4.0 | 0.00 | 0.00 | 0.00 | 68 | 1018.8 |
| 20260831164547 | 89 | 169 | 1.0 | 5.0 | 0.00 | 0.00 | 0.00 | 66 | 1019.1 |
| 20260831163054 | 88 | 35 | 2.0 | 8.0 | 0.00 | 0.00 | 0.00 | 72 | 1018.9 |
| 20260831161554 | 88 | 134 | 0.0 | 5.0 | 0.00 | 0.00 | 0.00 | 70 | 1019.1 |
| 20260831160055 | 87 | 159 | 2.0 | 7.0 | 0.00 | 0.00 | 0.00 | 72 | 1019.0 |
| 20260831154621 | 86 | 188 | 2.0 | 6.0 | 0.00 | 0.00 | 0.00 | 75 | 1019.1 |
| 20260831153058 | 85 | 0 | 0.0 | 5.0 | 0.00 | 0.00 | 0.00 | 77 | 1018.9 |
| 20260831151601 | 84 | 139 | 2.0 | 6.0 | 0.00 | 0.00 | 0.00 | 77 | 1018.8 |
| 20260831150051 | 84 | 51 | 0.0 | 5.0 | 0.00 | 0.00 | 0.00 | 79 | 1018.8 |
| 20260831144601 | 83 | 242 | 0.0 | 4.0 | 0.00 | 0.00 | 0.00 | 83 | 1018.8 |
| 20260831143056 | 0 | 0.0 | 0.0 | 0.00 | 0.00 | 0.00 | 1018.7 | ||
| 20260831141604 | 0 | 0.0 | 0.0 | 0.00 | 0.00 | 0.00 | 1018.6 | ||
| 20260831140051 | 0 | 0.0 | 0.0 | 0.00 | 0.00 | 0.00 | 1018.4 | ||
| 20260831134554 | 0 | 0.0 | 0.0 | 0.00 | 0.00 | 0.00 | 1018.4 |